COSMOS 2214

导读

COSMOS 2214是独联体(CIS)1992年10月20日发射的军用通信卫星,隶属于“天线”(Antey)系列。作为俄罗斯军事通信系统的支撑卫星,其运行于近地点约1409公里、远地点约1424公里的中地球轨道,具备抗干扰通信能力,技术细节未公开。现已失效,仍作为太空碎片在轨运行,国际标识为1992-068D。

基本信息
目录编号:
22185
目录名称:
COSMOS 2214
国际标识:
1992-068D
轨道中心:
EARTH
卫星名称:
COSMOS 2214
卫星全名:
--
卫星状态:
在轨 (已飞行12382 天)
发射日期:
1992-10-20 UTC
国别 :
俄罗斯(独联体) (CIS)
星等 :
--
该卫星已列入 空间交会检测服务 Space Conjunction Data Service (SCDS) ,当前飞行风险评估等级: 无高风险
轨道信息
数据来源 国际轨道数据 AOE轨道数据
星历时间 2026-09-13T22:10:02+0800
15小时前
查看轨道信息
2026-09-12T23:00:00+0800
1天前
查看轨道信息
半长轴 7794.461km 7794.461km
偏心率 0.000775 0.0007949
轨道倾角 82.590° 82.590°
近地点辐角 318.048° 320.495°
升交点赤经 297.550° 298.164°
平近点角 196.788° 132.342°
近地点 1410.283km 1410.128km
远地点 1422.365km 1422.52km
周期 114.140分钟 114.140分钟
每日圈数 12.616059 12.616059
详细信息
使用方式:
暂无
2D轨道图
3D轨道图
轨道高度分析图
轨道倾角分析图
轨道综合分析图
查看轨道综合分析图
与全量物体交会距离演化趋势 订阅飞行安全评估服务
与全量物体交会风险概率演化趋势 订阅飞行安全评估服务